User: anonymous   Login
Location: Caltech
(34.1382°N, 118.1253°W)
Time: 08:41:31
(UTC-07:00)
Language:

PANSAT - Orbit

View from above orbital plane
View from above orbital plane
View from above satellite
View from above satellite

Ground track
Ground track

The orbit data is extracted from the following two-line orbital elements,

1 25520U 98064B   17233.19694232  .00000958  00000-0  25820-4 0  9996
2 25520  28.4580 261.5685 0005206   6.7326 353.3339 15.28452111 44246
Epoch (UTC): 21 August 2017 04:43:35
Eccentricity: 0.0005206
inclination: 28.4580°
perigee height: 477 km
apogee height: 484 km
right ascension of ascending node: 261.5685°
argument of perigee: 6.7326°
revolutions per day: 15.28452111
mean anomaly at epoch: 353.3339°
orbit number at epoch: 4424

The dashed part of the orbit path shows where the satellite is in the earth's shadow,  

DLR